Volver al catálogo

METEOR 2-4

ActivoMeteoPO
NORAD 11288·PAYLOAD·🇷🇺 Russia

Lanzado Mar 1, 1979 desde Plesetsk Cosmodrome

Loading…

Próximos Pases (próximas 24 horas)

TLE

ActualizadoSource: Space-Track

Época: Sep 14, 2026, 10:00 UTC

1 11288U 79021A   26257.41682401 -.00000060  00000-0 -39509-4 0  9995
2 11288  81.2156  50.6163 0024293  44.4453 315.8662 14.12340394447614

Sigue METEOR 2-4 en tiempo real con AllMySat

Download on the App Store